• In Belgium
  • List of Countries
  • For 7 days
  • Water Temperature
  • Satellite Maps
  • Weather Map
  • Weather Widgets
  • user-avatar
    Login

    Hourly Weather Osmancık

    Today, 19 July, Thursday

    Time Temperature Precipitation Wind Pressure Humidity
    00:00 +21°C° 0 mm 1 mps 715 mmHg 85%
    01:00 +21°C° 0 mm 1 mps 715 mmHg 85%
    02:00 +20°C° 0 mm 1 mps 715 mmHg 83%
    03:00 +20°C° 0 mm 1 mps 715 mmHg 83%
    04:00 +20°C° 0 mm 1 mps 715 mmHg 84%
    05:00 +20°C° 0 mm 1 mps 715 mmHg 84%
    06:00 +22°C° 0 mm 1 mps 716 mmHg 74%
    07:00 +24°C° 0 mm 1 mps 716 mmHg 65%
    08:00 +26°C° 0 mm 1 mps 716 mmHg 55%
    09:00 +28°C° 0 mm 1 mps 716 mmHg 49%
    10:00 +29°C° 0 mm 2 mps 716 mmHg 43%
    11:00 +31°C° 0 mm 2 mps 716 mmHg 37%
    12:00 +31°C° 0.1 mm 2 mps 716 mmHg 37%
    13:00 +31°C° 0.1 mm 2 mps 716 mmHg 36%
    14:00 +31°C° 0.1 mm 3 mps 716 mmHg 35%
    15:00 +31°C° 0.4 mm 3 mps 716 mmHg 39%
    16:00 +30°C° 0.4 mm 3 mps 716 mmHg 43%
    17:00 +29°C° 0.4 mm 3 mps 716 mmHg 47%
    18:00 +27°C° 0.1 mm 3 mps 716 mmHg 57%
    19:00 +25°C° 0.1 mm 2 mps 716 mmHg 66%
    20:00 +23°C° 0.1 mm 2 mps 716 mmHg 76%
    21:00 +21°C° 0.1 mm 2 mps 716 mmHg 80%
    22:00 +22°C° 0.1 mm 1 mps 717 mmHg 84%
    23:00 +21°C° 0.1 mm 1 mps 717 mmHg 88%

    Tomorrow, 20 July, Friday

    Time Temperature Precipitation Wind Pressure Humidity
    00:00 +21°C° 0 mm 1 mps 717 mmHg 88%
    01:00 +20°C° 0 mm 1 mps 717 mmHg 89%
    02:00 +20°C° 0 mm 1 mps 717 mmHg 90%
    03:00 +20°C° 0 mm 1 mps 717 mmHg 89%
    04:00 +20°C° 0 mm 1 mps 717 mmHg 89%
    05:00 +19°C° 0 mm 1 mps 717 mmHg 88%
    06:00 +21°C° 0 mm 1 mps 717 mmHg 79%
    07:00 +23°C° 0 mm 1 mps 718 mmHg 70%
    08:00 +25°C° 0 mm 1 mps 718 mmHg 61%
    09:00 +27°C° 0 mm 1 mps 718 mmHg 55%
    10:00 +28°C° 0 mm 1 mps 718 mmHg 50%
    11:00 +30°C° 0 mm 2 mps 718 mmHg 44%
    12:00 +30°C° 0.1 mm 2 mps 718 mmHg 44%
    13:00 +30°C° 0.1 mm 2 mps 718 mmHg 43%
    14:00 +30°C° 0.1 mm 2 mps 718 mmHg 43%
    15:00 +30°C° 0.5 mm 3 mps 718 mmHg 47%
    16:00 +29°C° 0.5 mm 3 mps 718 mmHg 50%
    17:00 +28°C° 0.5 mm 3 mps 718 mmHg 54%
    18:00 +26°C° 0.4 mm 3 mps 718 mmHg 63%
    19:00 +25°C° 0.4 mm 2 mps 718 mmHg 72%
    20:00 +23°C° 0.4 mm 2 mps 718 mmHg 80%
    21:00 +21°C° 0 mm 2 mps 718 mmHg 83%
    22:00 +22°C° 0 mm 1 mps 718 mmHg 86%
    23:00 +21°C° 0 mm 1 mps 719 mmHg 89%

    Day after tomorrow, 21 July, Saturday

    Time Temperature Precipitation Wind Pressure Humidity
    00:00 +21°C° 0 mm 1 mps 719 mmHg 89%
    01:00 +20°C° 0 mm 1 mps 719 mmHg 90%
    02:00 +20°C° 0 mm 1 mps 719 mmHg 91%
    03:00 +20°C° 0 mm 1 mps 719 mmHg 90%
    04:00 +20°C° 0 mm 1 mps 719 mmHg 90%
    05:00 +20°C° 0 mm 1 mps 719 mmHg 90%
    06:00 +22°C° 0 mm 1 mps 719 mmHg 80%
    07:00 +24°C° 0 mm 1 mps 719 mmHg 70%
    08:00 +26°C° 0 mm 1 mps 720 mmHg 60%
    09:00 +27°C° 0 mm 1 mps 720 mmHg 54%
    10:00 +29°C° 0 mm 2 mps 720 mmHg 48%
    11:00 +30°C° 0 mm 2 mps 720 mmHg 42%
    12:00 +31°C° 0 mm 2 mps 720 mmHg 41%
    13:00 +33°C° 0 mm 3 mps 719 mmHg 40%
    14:00 +33°C° 0 mm 3 mps 719 mmHg 39%
    15:00 +31°C° 0 mm 3 mps 719 mmHg 42%
    16:00 +32°C° 0 mm 4 mps 719 mmHg 46%
    17:00 +30°C° 0 mm 4 mps 719 mmHg 50%
    18:00 +28°C° 0 mm 3 mps 719 mmHg 59%
    19:00 +26°C° 0 mm 2 mps 720 mmHg 68%
    20:00 +24°C° 0 mm 2 mps 720 mmHg 77%
    21:00 +23°C° 0 mm 2 mps 720 mmHg 80%
    22:00 +23°C° 0 mm 1 mps 720 mmHg 83%
    23:00 +22°C° 0 mm 1 mps 720 mmHg 87%

    22 July, Sunday

    Time Temperature Precipitation Wind Pressure Humidity
    00:00 +21°C° 0 mm 1 mps 720 mmHg 88%
    01:00 +21°C° 0 mm 1 mps 719 mmHg 89%
    02:00 +21°C° 0 mm 1 mps 719 mmHg 90%
    03:00 +21°C° 0 mm 1 mps 719 mmHg 90%
    04:00 +21°C° 0 mm 1 mps 719 mmHg 89%
    05:00 +20°C° 0 mm 1 mps 719 mmHg 89%
    06:00 +23°C° 0 mm 1 mps 719 mmHg 78%
    07:00 +25°C° 0 mm 1 mps 719 mmHg 67%
    08:00 +27°C° 0 mm 1 mps 720 mmHg 56%
    09:00 +28°C° 0 mm 1 mps 719 mmHg 51%
    10:00 +30°C° 0 mm 2 mps 719 mmHg 47%
    11:00 +31°C° 0 mm 2 mps 719 mmHg 42%
    12:00 +31°C° 0 mm 2 mps 719 mmHg 42%
    13:00 +33°C° 0 mm 3 mps 719 mmHg 42%
    14:00 +33°C° 0 mm 3 mps 718 mmHg 42%
    15:00 +31°C° 0.2 mm 3 mps 718 mmHg 45%
    16:00 +30°C° 0.2 mm 3 mps 718 mmHg 49%
    17:00 +30°C° 0.2 mm 4 mps 718 mmHg 52%
    18:00 +28°C° 0.2 mm 3 mps 718 mmHg 60%
    19:00 +26°C° 0.2 mm 2 mps 718 mmHg 68%
    20:00 +24°C° 0.2 mm 2 mps 719 mmHg 76%
    21:00 +24°C° 0.3 mm 2 mps 719 mmHg 79%
    22:00 +23°C° 0.3 mm 1 mps 719 mmHg 81%
    23:00 +23°C° 0.3 mm 1 mps 719 mmHg 84%

    23 July, Monday

    Time Temperature Precipitation Wind Pressure Humidity
    00:00 +22°C° 0.1 mm 1 mps 718 mmHg 86%
    01:00 +21°C° 0.1 mm 1 mps 718 mmHg 87%
    02:00 +21°C° 0.1 mm 1 mps 718 mmHg 89%
    03:00 +21°C° 0 mm 1 mps 718 mmHg 89%
    04:00 +21°C° 0 mm 1 mps 718 mmHg 89%
    05:00 +20°C° 0 mm 1 mps 718 mmHg 89%
    06:00 +23°C° 0 mm 1 mps 718 mmHg 79%
    07:00 +25°C° 0 mm 1 mps 718 mmHg 70%
    08:00 +25°C° 0 mm 0 mps 718 mmHg 60%
    09:00 +28°C° 0 mm 1 mps 718 mmHg 54%
    10:00 +30°C° 0 mm 1 mps 718 mmHg 48%
    11:00 +31°C° 0 mm 1 mps 718 mmHg 42%
    12:00 +31°C° 0 mm 1 mps 717 mmHg 41%
    13:00 +32°C° 0 mm 1 mps 717 mmHg 39%
    14:00 +32°C° 0 mm 2 mps 717 mmHg 38%
    15:00 +31°C° 0.1 mm 2 mps 717 mmHg 40%
    16:00 +31°C° 0.1 mm 2 mps 717 mmHg 42%
    17:00 +31°C° 0.1 mm 2 mps 717 mmHg 44%
    18:00 +29°C° 0.1 mm 2 mps 717 mmHg 53%
    19:00 +27°C° 0.1 mm 2 mps 717 mmHg 62%
    20:00 +25°C° 0.1 mm 2 mps 717 mmHg 71%
    21:00 +24°C° 0 mm 2 mps 717 mmHg 74%
    22:00 +23°C° 0 mm 1 mps 717 mmHg 77%
    23:00 +23°C° 0 mm 1 mps 717 mmHg 81%

    24 July, Tuesday

    Time Temperature Precipitation Wind Pressure Humidity
    00:00 +22°C° 0 mm 1 mps 716 mmHg 81%
    01:00 +22°C° 0 mm 1 mps 716 mmHg 82%
    02:00 +22°C° 0 mm 1 mps 716 mmHg 82%
    03:00 +22°C° 0 mm 1 mps 716 mmHg 82%
    04:00 +22°C° 0 mm 1 mps 716 mmHg 81%
    05:00 +22°C° 0 mm 1 mps 716 mmHg 81%
    06:00 +24°C° 0 mm 1 mps 716 mmHg 70%
    07:00 +27°C° 0 mm 1 mps 716 mmHg 60%
    08:00 +29°C° 0 mm 1 mps 716 mmHg 50%
    09:00 +31°C° 0 mm 1 mps 716 mmHg 44%
    10:00 +33°C° 0 mm 1 mps 716 mmHg 37%
    11:00 +35°C° 0 mm 1 mps 716 mmHg 31%
    12:00 +35°C° 0 mm 1 mps 716 mmHg 29%
    13:00 +36°C° 0 mm 1 mps 716 mmHg 28%
    14:00 +36°C° 0 mm 1 mps 716 mmHg 26%
    15:00 +37°C° 0 mm 2 mps 716 mmHg 29%
    16:00 +36°C° 0 mm 2 mps 716 mmHg 31%
    17:00 +35°C° 0 mm 2 mps 716 mmHg 34%
    18:00 +32°C° 0 mm 2 mps 716 mmHg 42%
    19:00 +30°C° 0 mm 2 mps 716 mmHg 50%
    20:00 +27°C° 0 mm 2 mps 716 mmHg 58%
    21:00 +26°C° 0 mm 2 mps 717 mmHg 63%
    22:00 +26°C° 0 mm 2 mps 717 mmHg 67%
    23:00 +25°C° 0 mm 1 mps 717 mmHg 72%
    Show more